Sedona, AZ

11:32 AM MST on October 18, 2017 (GMT -0700)
Sedona

Weather History for KSEZ - September, 2013

Change the Weather History Date:

Sunday, September 15, 2013

  Actual Average Record
Temperature  
Mean Temperature 74 °F -  
Max Temperature 86 °F 87 °F 93 °F (2010)
Min Temperature 62 °F 56 °F 57 °F (2011)
Cooling Degree Days 9    
Growing Degree Days 24 (Base 50)    
Moisture  
Dew Point 49 °F    
Average Humidity 45    
Maximum Humidity 64    
Minimum Humidity 23    
Precipitation  
Precipitation 0.00 in - - ()
Sea Level Pressure  
Sea Level Pressure 30.04 in    
Wind  
Wind Speed 9 mph (ENE)    
Max Wind Speed 16 mph    
Max Gust Speed 30 mph    
Visibility 10 miles    
Events Thunderstorm    
Averages and records for this station are not official NWS values.
T = Trace of Precipitation, MM = Missing Value Source: NWS Daily Summary

Daily Weather History Graph

Daily Weather History Graph

Search for Another Location

Airport or City:

Trip Planner

Search our weather history database for the weather conditions in past years. The results will help you decide how hot, cold, wet, or windy it might be!

Date:

Astronomy

Sep. 15, 2013 Rise Set
Actual Time 6:10 AM MST 6:33 PM MST
Civil Twilight 5:45 AM MST 6:58 PM MST
Nautical Twilight 5:15 AM MST 7:28 PM MST
Astronomical Twilight 4:45 AM MST 7:58 PM MST
Moon 3:57 PM MST (9/15) 2:00 AM MST (9/15)
Length of Visible Light 13h 13m
Length of Day
12h 23m
Waxing Gibbous, 83% of the Moon is Illuminated
Sep 15
Waxing Gibbous
Sep 19
Full
Sep 26
Last Quarter
Oct 4
New
Oct 11
First Quarter

Hourly Weather History & Observations

Time (MST) Temp. Dew Point Humidity Pressure Visibility Wind Dir Wind Speed Gust Speed Precip Events Conditions
12:15 AM 64.4 °F 51.8 °F 64% 29.98 in 10.0 mi NE 11.5 mph - N/A   Clear
12:35 AM 64.4 °F 51.8 °F 64% 29.99 in 10.0 mi NE 10.4 mph - N/A   Clear
12:55 AM 66.2 °F 50.0 °F 56% 29.99 in 10.0 mi NE 10.4 mph - N/A   Clear
1:15 AM 64.4 °F 51.8 °F 64% 29.99 in 10.0 mi NE 10.4 mph - N/A   Clear
1:35 AM 64.4 °F 51.8 °F 64% 29.99 in 10.0 mi NE 10.4 mph - N/A   Clear
1:55 AM 64.4 °F 50.0 °F 59% 29.99 in 10.0 mi NE 12.7 mph - N/A   Clear
2:15 AM 64.4 °F 50.0 °F 59% 29.99 in 10.0 mi NE 12.7 mph - N/A   Clear
2:35 AM 64.4 °F 50.0 °F 59% 29.99 in 10.0 mi NNE 13.8 mph - N/A   Clear
2:55 AM 64.4 °F 50.0 °F 59% 29.99 in 10.0 mi NE 13.8 mph - N/A   Clear
3:15 AM 64.4 °F 50.0 °F 59% 29.99 in 10.0 mi NE 12.7 mph 17.3 mph N/A   Clear
3:35 AM 64.4 °F 50.0 °F 59% 29.99 in 10.0 mi NE 11.5 mph - N/A   Clear
3:55 AM 64.4 °F 50.0 °F 59% 30.00 in 10.0 mi NE 13.8 mph - N/A   Clear
4:15 AM 64.4 °F 50.0 °F 59% 30.00 in 10.0 mi NE 10.4 mph - N/A   Clear
4:35 AM 64.4 °F 50.0 °F 59% 30.00 in 10.0 mi NE 6.9 mph - N/A   Clear
4:55 AM 64.4 °F 50.0 °F 59% 30.02 in 10.0 mi NE 9.2 mph - N/A   Clear
5:15 AM 62.6 °F 50.0 °F 63% 30.02 in 10.0 mi NE 8.1 mph - N/A   Clear
5:35 AM 62.6 °F 50.0 °F 63% 30.02 in 10.0 mi NE 12.7 mph - N/A   Clear
5:55 AM 62.6 °F 50.0 °F 63% 30.02 in 10.0 mi NE 11.5 mph - N/A   Clear
6:15 AM 62.6 °F 50.0 °F 63% 30.03 in 10.0 mi NE 10.4 mph - N/A   Clear
6:35 AM 62.6 °F 50.0 °F 63% 30.03 in 10.0 mi NE 11.5 mph - N/A   Clear
6:55 AM 64.4 °F 50.0 °F 59% 30.04 in 10.0 mi NE 9.2 mph - N/A   Clear
7:15 AM 66.2 °F 50.0 °F 56% 30.05 in 10.0 mi ENE 6.9 mph - N/A   Clear
7:35 AM 68.0 °F 50.0 °F 52% 30.05 in 10.0 mi East 3.5 mph - N/A   Clear
7:55 AM 69.8 °F 50.0 °F 49% 30.06 in 10.0 mi East 3.5 mph - N/A   Clear
8:15 AM 71.6 °F 51.8 °F 50% 30.06 in 10.0 mi Calm Calm - N/A   Clear
8:35 AM 71.6 °F 51.8 °F 50% 30.07 in 10.0 mi Calm Calm - N/A   Clear
8:55 AM 73.4 °F 53.6 °F 50% 30.08 in 10.0 mi SE 4.6 mph - N/A   Clear
9:15 AM 73.4 °F 51.8 °F 47% 30.08 in 10.0 mi SSE 3.5 mph - N/A   Clear
9:35 AM 75.2 °F 51.8 °F 44% 30.08 in 10.0 mi SE 3.5 mph - N/A   Clear
9:55 AM 77.0 °F 51.8 °F 41% 30.08 in 10.0 mi Calm Calm - N/A   Clear
10:15 AM 78.8 °F 53.6 °F 42% 30.08 in 10.0 mi South 3.5 mph - N/A   Clear
10:35 AM 78.8 °F 53.6 °F 42% 30.08 in 10.0 mi South 4.6 mph - N/A   Clear
10:55 AM 80.6 °F 51.8 °F 37% 30.08 in 10.0 mi South 3.5 mph - N/A   Clear
11:15 AM 80.6 °F 51.8 °F 37% 30.08 in 10.0 mi SSW 3.5 mph - N/A   Clear
11:35 AM 80.6 °F 51.8 °F 37% 30.08 in 10.0 mi Calm Calm - N/A   Clear
11:55 AM 82.4 °F 51.8 °F 35% 30.07 in 10.0 mi South 5.8 mph - N/A   Clear
12:15 PM 82.4 °F 51.8 °F 35% 30.06 in 10.0 mi Calm Calm - N/A   Clear
12:35 PM 82.4 °F 51.8 °F 35% 30.06 in 10.0 mi South 5.8 mph - N/A   Clear
12:55 PM 86.0 °F 50.0 °F 29% 30.06 in 10.0 mi South 5.8 mph - N/A   Clear
1:15 PM 86.0 °F 44.6 °F 23% 30.05 in 10.0 mi South 4.6 mph - N/A   Clear
1:35 PM 82.4 °F 44.6 °F 26% 30.04 in 10.0 mi WSW 5.8 mph - N/A   Clear
1:55 PM 84.2 °F 48.2 °F 29% 30.04 in 10.0 mi SSE 5.8 mph - N/A   Clear
2:15 PM 84.2 °F 50.0 °F 30% 30.03 in 10.0 mi SSW 4.6 mph - N/A Thunderstorm Thunderstorm
2:35 PM 86.0 °F 50.0 °F 29% 30.03 in 10.0 mi NNE 4.6 mph - N/A   Scattered Clouds
2:55 PM 84.2 °F 50.0 °F 30% 30.03 in 10.0 mi North 5.8 mph - N/A   Scattered Clouds
3:15 PM 86.0 °F 50.0 °F 29% 30.02 in 10.0 mi ENE 4.6 mph - N/A   Clear
3:35 PM 82.4 °F 50.0 °F 32% 30.02 in 10.0 mi NE 10.4 mph - N/A Thunderstorm Scattered Clouds
3:55 PM 82.4 °F 48.2 °F 30% 30.02 in 10.0 mi East 6.9 mph - N/A Thunderstorm Scattered Clouds
4:15 PM 82.4 °F 50.0 °F 32% 30.02 in 10.0 mi ENE 8.1 mph - N/A Thunderstorm Clear
4:35 PM 80.6 °F 51.8 °F 37% 30.02 in 10.0 mi ESE 16.1 mph 29.9 mph N/A Thunderstorm Clear
4:55 PM 80.6 °F 50.0 °F 34% 30.03 in 10.0 mi ESE 11.5 mph 17.3 mph N/A   Clear
5:15 PM 78.8 °F 48.2 °F 34% 30.03 in 10.0 mi ESE 5.8 mph - N/A   Clear
5:35 PM 78.8 °F 44.6 °F 30% 30.03 in 10.0 mi East 3.5 mph - N/A   Clear
5:55 PM 78.8 °F 44.6 °F 30% 30.03 in 10.0 mi East 5.8 mph - N/A   Clear
6:15 PM 77.0 °F 46.4 °F 34% 30.03 in 10.0 mi ENE 5.8 mph - N/A   Clear
6:35 PM 77.0 °F 50.0 °F 39% 30.03 in 10.0 mi NNE 6.9 mph - N/A   Clear
6:55 PM 73.4 °F 51.8 °F 47% 30.03 in 10.0 mi NNE 9.2 mph - N/A   Clear
7:15 PM 75.2 °F 50.0 °F 41% 30.03 in 10.0 mi ENE 9.2 mph - N/A   Clear
7:35 PM 73.4 °F 50.0 °F 44% 30.04 in 10.0 mi NE 8.1 mph - N/A   Clear
7:55 PM 73.4 °F 50.0 °F 44% 30.05 in 10.0 mi ENE 8.1 mph - N/A   Clear
8:15 PM 73.4 °F 51.8 °F 47% 30.06 in 10.0 mi ENE 10.4 mph - N/A   Clear
8:35 PM 73.4 °F 50.0 °F 44% 30.06 in 10.0 mi East 9.2 mph - N/A   Clear
8:55 PM 71.6 °F 48.2 °F 43% 30.06 in 10.0 mi ENE 10.4 mph - N/A   Clear
9:15 PM 73.4 °F 44.6 °F 36% 30.07 in 10.0 mi ENE 10.4 mph - N/A   Clear
9:35 PM 73.4 °F 44.6 °F 36% 30.07 in 10.0 mi NE 11.5 mph 16.1 mph N/A   Clear
9:55 PM 73.4 °F 44.6 °F 36% 30.07 in 10.0 mi NE 12.7 mph - N/A   Clear
10:15 PM 73.4 °F 44.6 °F 36% 30.07 in 10.0 mi NE 15.0 mph 20.7 mph N/A   Clear
10:35 PM 73.4 °F 44.6 °F 36% 30.07 in 10.0 mi NE 13.8 mph - N/A   Clear
10:55 PM 73.4 °F 44.6 °F 36% 30.07 in 10.0 mi NE 13.8 mph - N/A   Clear
11:15 PM 73.4 °F 44.6 °F 36% 30.07 in 10.0 mi NE 13.8 mph 19.6 mph N/A   Clear
11:35 PM 73.4 °F 44.6 °F 36% 30.08 in 10.0 mi NE 16.1 mph 20.7 mph N/A   Clear
11:55 PM 73.4 °F 44.6 °F 36% 30.08 in 10.0 mi ENE 10.4 mph - N/A   Clear